Location: Unspecified
(0.0000°N, 0.0000°E)
Time: 18:47:09
(UTC+00:00)

Tiros 1 - Pass Details

Date: 20 November 2019
Orbit: 630 x 664 km, 48.4° (Epoch: 06 December)

Event Time Altitude Azimuth Distance (km) Brightness Sun altitude
Rises 20:59:12 0° 358° (N) 2,937 - -44.7°
Reaches altitude 10° 21:03:34 10° 37° (NE) 2,042 - -45.7°
Maximum altitude 21:04:37 11° 50° (NE) 2,000 - -45.9°
Drops below altitude 10° 21:05:42 10° 63° (ENE) 2,049 - -46.1°
Sets 21:10:05 0° 101° (E) 2,973 - -47.1°
